Time,TemperatureF,DewpointF,PressureIn,WindDirection,WindDirectionDegrees,WindSpeedMPH,WindSpeedGustMPH,Humidity,HourlyPrecipIn,Conditions,Clouds,dailyrainin,SoftwareType,DateUTC
2013-02-28 00:00:00,42.3,36.3,29.54,WSW,240,0.0,0.0,79,0.00,,---,0.00,VWS V13.01,2013-02-28 05:00:00,
2013-02-28 00:05:00,42.1,36.4,29.54,WSW,240,0.0,0.0,80,0.00,,---,0.00,VWS V13.01,2013-02-28 05:05:00,
2013-02-28 00:10:00,41.6,36.2,29.54,WSW,240,0.0,0.0,81,0.00,,---,0.00,VWS V13.01,2013-02-28 05:10:00,
2013-02-28 00:15:00,41.5,36.4,29.54,WSW,240,0.0,0.0,82,0.00,,---,0.00,VWS V13.01,2013-02-28 05:15:00,
2013-02-28 00:20:00,41.3,36.2,29.54,WSW,240,0.0,0.0,82,0.00,,---,0.00,VWS V13.01,2013-02-28 05:20:00,
2013-02-28 00:25:00,41.3,36.2,29.54,WSW,240,0.0,0.0,82,0.00,,---,0.00,VWS V13.01,2013-02-28 05:25:00,
2013-02-28 00:30:00,41.5,36.4,29.54,WSW,240,0.0,0.0,82,0.00,,---,0.00,VWS V13.01,2013-02-28 05:30:00,
2013-02-28 00:35:00,41.3,36.2,29.54,WSW,240,0.0,0.0,82,0.00,,---,0.00,VWS V13.01,2013-02-28 05:35:00,
2013-02-28 00:40:00,41.3,36.2,29.54,WSW,240,0.0,0.0,82,0.00,,---,0.00,VWS V13.01,2013-02-28 05:40:00,
2013-02-28 00:45:00,41.3,36.2,29.53,WSW,240,0.0,0.0,82,0.00,,---,0.00,VWS V13.01,2013-02-28 05:45:00,
2013-02-28 00:50:00,41.5,36.4,29.53,WSW,240,0.0,2.0,82,0.00,,---,0.00,VWS V13.01,2013-02-28 05:50:00,
2013-02-28 00:55:00,41.5,36.1,29.53,WSW,240,0.0,2.0,81,0.00,,---,0.00,VWS V13.01,2013-02-28 05:55:00,
2013-02-28 01:00:00,41.5,36.1,29.53,WSW,240,0.0,0.0,81,0.00,,---,0.00,VWS V13.01,2013-02-28 06:00:00,
2013-02-28 01:05:00,41.3,36.2,29.53,WSW,240,0.0,0.0,82,0.00,,---,0.00,VWS V13.01,2013-02-28 06:05:00,
2013-02-28 01:10:00,41.2,36.1,29.53,WSW,240,0.0,0.0,82,0.00,,---,0.00,VWS V13.01,2013-02-28 06:10:00,
2013-02-28 01:15:00,41.2,36.4,29.53,WSW,240,1.0,2.0,83,0.00,,---,0.00,VWS V13.01,2013-02-28 06:15:00,
2013-02-28 01:20:00,41.3,36.2,29.53,WSW,240,0.0,2.0,82,0.00,,---,0.00,VWS V13.01,2013-02-28 06:20:00,
2013-02-28 01:25:00,41.2,36.1,29.53,WSW,240,0.0,2.0,82,0.00,,---,0.00,VWS V13.01,2013-02-28 06:25:00,
2013-02-28 01:30:00,41.1,36.3,29.53,WSW,240,0.0,2.0,83,0.00,,---,0.00,VWS V13.01,2013-02-28 06:30:00,
2013-02-28 01:35:00,41.1,36.3,29.53,WSW,240,0.0,2.0,83,0.00,,---,0.00,VWS V13.01,2013-02-28 06:35:00,
2013-02-28 01:40:00,41.1,36.3,29.53,WSW,240,0.0,2.0,83,0.00,,---,0.00,VWS V13.01,2013-02-28 06:40:00,
2013-02-28 01:45:00,41.1,36.3,29.53,WSW,240,1.0,2.0,83,0.00,,---,0.00,VWS V13.01,2013-02-28 06:45:00,
2013-02-28 01:50:00,40.6,35.8,29.53,WSW,240,0.0,2.0,83,0.00,,---,0.00,VWS V13.01,2013-02-28 06:50:00,
2013-02-28 01:55:00,40.3,35.9,29.53,WSW,240,2.0,3.0,84,0.00,,---,0.00,VWS V13.01,2013-02-28 06:55:00,
2013-02-28 02:00:00,40.3,36.2,29.53,WSW,240,0.0,0.0,85,0.00,,---,0.00,VWS V13.01,2013-02-28 07:00:00,
2013-02-28 02:05:00,40.3,36.2,29.53,WSW,240,0.0,0.0,85,0.00,,---,0.00,VWS V13.01,2013-02-28 07:05:00,
2013-02-28 02:10:00,40.5,36.0,29.53,WSW,241,0.0,0.0,84,0.00,,---,0.00,VWS V13.01,2013-02-28 07:10:00,
2013-02-28 02:15:00,40.6,36.2,29.52,WSW,241,0.0,0.0,84,0.00,,---,0.00,VWS V13.01,2013-02-28 07:15:00,
2013-02-28 02:20:00,40.6,35.8,29.52,WSW,241,0.0,0.0,83,0.00,,---,0.00,VWS V13.01,2013-02-28 07:20:00,
2013-02-28 02:25:00,40.8,35.7,29.52,WSW,241,0.0,0.0,82,0.00,,---,0.00,VWS V13.01,2013-02-28 07:25:00,
2013-02-28 02:30:00,40.5,35.5,29.53,WSW,241,0.0,0.0,82,0.00,,---,0.00,VWS V13.01,2013-02-28 07:30:00,
2013-02-28 02:35:00,40.1,35.7,29.53,WSW,241,0.0,0.0,84,0.00,,---,0.00,VWS V13.01,2013-02-28 07:35:00,
2013-02-28 02:40:00,39.8,35.4,29.53,WSW,241,0.0,0.0,84,0.00,,---,0.00,VWS V13.01,2013-02-28 07:40:00,
2013-02-28 02:45:00,39.6,35.5,29.53,WSW,241,0.0,0.0,85,0.00,,---,0.00,VWS V13.01,2013-02-28 07:45:00,
2013-02-28 02:50:00,39.8,35.7,29.53,WSW,241,0.0,0.0,85,0.00,,---,0.00,VWS V13.01,2013-02-28 07:50:00,
2013-02-28 02:55:00,39.9,35.5,29.53,WSW,241,0.0,0.0,84,0.00,,---,0.00,VWS V13.01,2013-02-28 07:55:00,
2013-02-28 03:00:00,40.1,35.7,29.52,WSW,241,0.0,0.0,84,0.00,,---,0.00,VWS V13.01,2013-02-28 08:00:00,
2013-02-28 03:05:00,40.3,35.2,29.52,WSW,242,0.0,1.0,82,0.00,,---,0.00,VWS V13.01,2013-02-28 08:05:00,
2013-02-28 03:10:00,40.6,34.9,29.52,WSW,242,0.0,1.0,80,0.00,,---,0.00,VWS V13.01,2013-02-28 08:10:00,
2013-02-28 03:15:00,40.9,34.6,29.52,WSW,242,0.0,0.0,78,0.00,,---,0.00,VWS V13.01,2013-02-28 08:15:00,
2013-02-28 03:20:00,41.1,34.5,29.52,WSW,242,0.0,2.0,77,0.00,,---,0.00,VWS V13.01,2013-02-28 08:20:00,
2013-02-28 03:25:00,41.2,34.5,29.52,WSW,242,0.0,2.0,77,0.00,,---,0.00,VWS V13.01,2013-02-28 08:25:00,
2013-02-28 03:30:00,41.2,34.5,29.52,WSW,244,2.0,4.0,77,0.00,,---,0.00,VWS V13.01,2013-02-28 08:30:00,
2013-02-28 03:35:00,41.3,34.7,29.52,West,270,3.0,4.0,77,0.00,,---,0.00,VWS V13.01,2013-02-28 08:35:00,
2013-02-28 03:40:00,41.3,34.7,29.52,West,271,0.0,4.0,77,0.00,,---,0.00,VWS V13.01,2013-02-28 08:40:00,
2013-02-28 03:45:00,41.3,34.7,29.52,West,275,0.0,4.0,77,0.00,,---,0.00,VWS V13.01,2013-02-28 08:45:00,
2013-02-28 03:50:00,41.2,34.5,29.52,West,275,0.0,4.0,77,0.00,,---,0.00,VWS V13.01,2013-02-28 08:50:00,
2013-02-28 03:55:00,41.2,34.5,29.52,West,275,0.0,4.0,77,0.00,,---,0.00,VWS V13.01,2013-02-28 08:55:00,
2013-02-28 04:00:00,41.1,34.8,29.52,West,275,0.0,0.0,78,0.00,,---,0.00,VWS V13.01,2013-02-28 09:00:00,
2013-02-28 04:05:00,41.1,34.8,29.52,West,275,0.0,0.0,78,0.00,,---,0.00,VWS V13.01,2013-02-28 09:05:00,
2013-02-28 04:10:00,40.9,34.9,29.52,West,275,0.0,0.0,79,0.00,,---,0.00,VWS V13.01,2013-02-28 09:10:00,
2013-02-28 04:14:00,40.6,34.6,29.52,West,275,0.0,0.0,79,0.00,,---,0.00,VWS V13.01,2013-02-28 09:14:00,
2013-02-28 04:19:00,40.6,34.6,29.52,West,275,0.0,0.0,79,0.00,,---,0.00,VWS V13.01,2013-02-28 09:19:00,
2013-02-28 04:24:00,40.6,34.6,29.52,West,275,0.0,0.0,79,0.00,,---,0.00,VWS V13.01,2013-02-28 09:24:00,
2013-02-28 04:29:00,40.6,34.9,29.52,West,275,0.0,0.0,80,0.00,,---,0.00,VWS V13.01,2013-02-28 09:29:00,
2013-02-28 04:34:00,40.5,34.8,29.52,West,275,0.0,0.0,80,0.00,,---,0.00,VWS V13.01,2013-02-28 09:34:00,
2013-02-28 04:39:00,40.3,34.6,29.52,West,275,0.0,0.0,80,0.00,,---,0.00,VWS V13.01,2013-02-28 09:39:00,
2013-02-28 04:44:00,40.3,34.9,29.52,West,275,0.0,0.0,81,0.00,,---,0.00,VWS V13.01,2013-02-28 09:44:00,
2013-02-28 04:50:00,40.2,34.8,29.52,West,275,0.0,1.0,81,0.00,,---,0.00,VWS V13.01,2013-02-28 09:50:00,
2013-02-28 04:55:00,40.3,34.6,29.52,West,272,0.0,1.0,80,0.00,,---,0.00,VWS V13.01,2013-02-28 09:55:00,
2013-02-28 05:00:00,40.3,34.6,29.53,West,272,0.0,0.0,80,0.00,,---,0.00,VWS V13.01,2013-02-28 10:00:00,
2013-02-28 05:05:00,40.3,34.6,29.53,West,272,0.0,0.0,80,0.00,,---,0.00,VWS V13.01,2013-02-28 10:05:00,
2013-02-28 05:10:00,40.2,34.5,29.53,West,272,0.0,0.0,80,0.00,,---,0.00,VWS V13.01,2013-02-28 10:10:00,
2013-02-28 05:15:00,40.2,34.8,29.53,West,267,0.0,0.0,81,0.00,,---,0.00,VWS V13.01,2013-02-28 10:15:00,
2013-02-28 05:20:00,40.1,34.8,29.53,West,267,0.0,0.0,81,0.00,,---,0.00,VWS V13.01,2013-02-28 10:20:00,
2013-02-28 05:25:00,40.1,34.8,29.53,West,267,0.0,0.0,81,0.00,,---,0.00,VWS V13.01,2013-02-28 10:25:00,
2013-02-28 05:29:00,40.1,34.8,29.53,West,267,0.0,3.0,81,0.00,,---,0.00,VWS V13.01,2013-02-28 10:29:00,
2013-02-28 05:34:00,40.1,34.4,29.53,West,267,1.0,3.0,80,0.00,,---,0.00,VWS V13.01,2013-02-28 10:34:00,
2013-02-28 05:39:00,40.1,34.4,29.53,West,267,0.0,3.0,80,0.00,,---,0.00,VWS V13.01,2013-02-28 10:39:00,
2013-02-28 05:44:00,40.1,34.4,29.53,West,267,0.0,3.0,80,0.00,,---,0.00,VWS V13.01,2013-02-28 10:44:00,
2013-02-28 05:49:00,40.1,34.4,29.53,West,267,0.0,3.0,80,0.00,,---,0.00,VWS V13.01,2013-02-28 10:49:00,
2013-02-28 05:54:00,39.9,34.2,29.53,West,267,0.0,3.0,80,0.00,,---,0.00,VWS V13.01,2013-02-28 10:54:00,
2013-02-28 05:59:00,39.8,34.1,29.53,West,267,0.0,0.0,80,0.00,,---,0.00,VWS V13.01,2013-02-28 10:59:00,
2013-02-28 06:04:00,39.8,34.5,29.53,West,267,0.0,0.0,81,0.00,,---,0.00,VWS V13.01,2013-02-28 11:04:00,
2013-02-28 06:09:00,39.8,34.1,29.53,West,267,0.0,0.0,80,0.00,,---,0.00,VWS V13.01,2013-02-28 11:09:00,
2013-02-28 06:14:00,39.8,34.1,29.53,West,267,0.0,0.0,80,0.00,,---,0.00,VWS V13.01,2013-02-28 11:14:00,
2013-02-28 06:19:00,39.8,34.1,29.53,West,267,0.0,0.0,80,0.00,,---,0.00,VWS V13.01,2013-02-28 11:19:00,
2013-02-28 06:24:00,39.8,34.1,29.53,West,267,0.0,0.0,80,0.00,,---,0.00,VWS V13.01,2013-02-28 11:24:00,
2013-02-28 06:29:00,39.6,34.0,29.53,West,267,0.0,0.0,80,0.00,,---,0.00,VWS V13.01,2013-02-28 11:29:00,
2013-02-28 06:34:00,39.6,34.0,29.53,West,267,0.0,0.0,80,0.00,,---,0.00,VWS V13.01,2013-02-28 11:34:00,
2013-02-28 06:39:00,39.5,33.8,29.53,West,267,0.0,0.0,80,0.00,,---,0.00,VWS V13.01,2013-02-28 11:39:00,
2013-02-28 06:44:00,39.3,33.7,29.53,West,267,0.0,0.0,80,0.00,,---,0.00,VWS V13.01,2013-02-28 11:44:00,
2013-02-28 06:49:00,39.2,33.9,29.53,West,267,0.0,0.0,81,0.00,,---,0.00,VWS V13.01,2013-02-28 11:49:00,
2013-02-28 06:54:00,39.2,33.9,29.53,West,267,3.0,4.0,81,0.00,,---,0.00,VWS V13.01,2013-02-28 11:54:00,
2013-02-28 06:59:00,39.2,33.6,29.53,West,269,0.0,3.0,80,0.00,,---,0.00,VWS V13.01,2013-02-28 11:59:00,
2013-02-28 07:04:00,38.9,33.3,29.53,West,269,0.0,3.0,80,0.00,,---,0.00,VWS V13.01,2013-02-28 12:04:00,
2013-02-28 07:09:00,38.8,33.5,29.53,West,269,0.0,3.0,81,0.00,,---,0.00,VWS V13.01,2013-02-28 12:09:00,
2013-02-28 07:14:00,38.6,33.3,29.53,West,269,0.0,0.0,81,0.00,,---,0.00,VWS V13.01,2013-02-28 12:14:00,
2013-02-28 07:19:00,38.3,33.0,29.53,West,269,0.0,0.0,81,0.00,,---,0.00,VWS V13.01,2013-02-28 12:19:00,
2013-02-28 07:24:00,38.3,33.0,29.53,West,270,0.0,0.0,81,0.00,,---,0.00,VWS V13.01,2013-02-28 12:24:00,
2013-02-28 07:29:00,38.3,33.0,29.54,West,270,0.0,0.0,81,0.00,,---,0.00,VWS V13.01,2013-02-28 12:29:00,
2013-02-28 07:34:00,38.5,33.2,29.54,West,270,0.0,0.0,81,0.00,,---,0.00,VWS V13.01,2013-02-28 12:34:00,
2013-02-28 07:39:00,38.8,33.5,29.54,West,270,0.0,0.0,81,0.00,,---,0.00,VWS V13.01,2013-02-28 12:39:00,
2013-02-28 07:44:00,38.9,33.6,29.54,West,270,0.0,3.0,81,0.00,,---,0.00,VWS V13.01,2013-02-28 12:44:00,
2013-02-28 07:49:00,39.1,33.8,29.54,West,270,1.0,3.0,81,0.00,,---,0.00,VWS V13.01,2013-02-28 12:49:00,
2013-02-28 07:54:00,38.9,33.6,29.54,West,270,0.0,3.0,81,0.00,,---,0.00,VWS V13.01,2013-02-28 12:54:00,
2013-02-28 07:59:00,38.8,33.8,29.55,West,270,0.0,0.0,82,0.00,,---,0.00,VWS V13.01,2013-02-28 12:59:00,
2013-02-28 08:04:00,38.8,33.8,29.55,West,270,0.0,0.0,82,0.00,,---,0.00,VWS V13.01,2013-02-28 13:04:00,
2013-02-28 08:09:00,38.9,33.9,29.55,West,270,0.0,0.0,82,0.00,,---,0.00,VWS V13.01,2013-02-28 13:09:00,
2013-02-28 08:14:00,39.3,34.0,29.55,West,270,0.0,0.0,81,0.00,,---,0.00,VWS V13.01,2013-02-28 13:14:00,
2013-02-28 08:19:00,39.6,34.3,29.55,West,272,0.0,3.0,81,0.00,,---,0.00,VWS V13.01,2013-02-28 13:19:00,
2013-02-28 08:24:00,39.8,34.5,29.55,West,272,0.0,3.0,81,0.00,,---,0.00,VWS V13.01,2013-02-28 13:24:00,
2013-02-28 08:29:00,39.9,34.5,29.56,West,272,0.0,0.0,81,0.00,,---,0.00,VWS V13.01,2013-02-28 13:29:00,
2013-02-28 08:34:00,40.1,34.8,29.56,West,272,0.0,0.0,81,0.00,,---,0.00,VWS V13.01,2013-02-28 13:34:00,
2013-02-28 08:39:00,40.2,34.8,29.56,West,272,0.0,0.0,81,0.00,,---,0.00,VWS V13.01,2013-02-28 13:39:00,
2013-02-28 08:44:00,40.3,34.6,29.55,West,272,0.0,0.0,80,0.00,,---,0.00,VWS V13.01,2013-02-28 13:44:00,
2013-02-28 08:49:00,40.5,34.5,29.55,West,273,0.0,4.0,79,0.00,,---,0.00,VWS V13.01,2013-02-28 13:49:00,
2013-02-28 08:54:00,40.8,34.5,29.55,West,273,0.0,4.0,78,0.00,,---,0.00,VWS V13.01,2013-02-28 13:54:00,
2013-02-28 08:59:00,40.9,34.3,29.55,West,273,0.0,0.0,77,0.00,,---,0.00,VWS V13.01,2013-02-28 13:59:00,
2013-02-28 09:04:00,41.1,34.5,29.55,West,273,0.0,0.0,77,0.00,,---,0.00,VWS V13.01,2013-02-28 14:04:00,
2013-02-28 09:09:00,41.2,34.5,29.55,West,273,0.0,0.0,77,0.00,,---,0.00,VWS V13.01,2013-02-28 14:09:00,
2013-02-28 09:14:00,41.3,34.7,29.55,West,273,0.0,0.0,77,0.00,,---,0.00,VWS V13.01,2013-02-28 14:14:00,
2013-02-28 09:19:00,41.3,34.3,29.55,West,273,0.0,0.0,76,0.00,,---,0.00,VWS V13.01,2013-02-28 14:19:00,
2013-02-28 09:24:00,41.3,34.0,29.55,West,273,0.0,0.0,75,0.00,,---,0.00,VWS V13.01,2013-02-28 14:24:00,
2013-02-28 09:29:00,41.5,34.5,29.55,WNW,284,2.0,4.0,76,0.00,,---,0.00,VWS V13.01,2013-02-28 14:29:00,
2013-02-28 09:34:00,41.3,34.3,29.55,WNW,288,3.0,5.0,76,0.00,,---,0.00,VWS V13.01,2013-02-28 14:34:00,
2013-02-28 09:39:00,41.3,34.3,29.55,West,277,0.0,5.0,76,0.00,,---,0.00,VWS V13.01,2013-02-28 14:39:00,
2013-02-28 09:44:00,41.3,34.3,29.55,West,281,4.0,5.0,76,0.00,,---,0.00,VWS V13.01,2013-02-28 14:44:00,
2013-02-28 09:49:00,41.5,34.5,29.55,West,280,0.0,5.0,76,0.00,,---,0.00,VWS V13.01,2013-02-28 14:49:00,
2013-02-28 09:54:00,41.6,34.6,29.55,WNW,288,0.0,5.0,76,0.00,,---,0.00,VWS V13.01,2013-02-28 14:54:00,
2013-02-28 09:59:00,41.9,34.9,29.54,WNW,293,4.0,5.0,76,0.00,,---,0.00,VWS V13.01,2013-02-28 14:59:00,
2013-02-28 10:04:00,41.9,34.2,29.54,NW,308,4.0,7.0,74,0.00,,---,0.00,VWS V13.01,2013-02-28 15:04:00,
2013-02-28 10:09:00,41.9,33.5,29.54,WNW,300,4.0,7.0,72,0.00,,---,0.00,VWS V13.01,2013-02-28 15:09:00,
2013-02-28 10:14:00,42.5,34.5,29.53,NW,311,5.0,6.0,73,0.00,,---,0.00,VWS V13.01,2013-02-28 15:14:00,
2013-02-28 10:19:00,42.6,33.9,29.53,NW,308,0.0,7.0,71,0.00,,---,0.00,VWS V13.01,2013-02-28 15:19:00,
2013-02-28 10:24:00,42.6,33.2,29.53,NNW,336,0.0,9.0,69,0.00,,---,0.00,VWS V13.01,2013-02-28 15:24:00,
2013-02-28 10:29:00,42.9,33.1,29.53,WNW,301,2.0,9.0,68,0.00,,---,0.00,VWS V13.01,2013-02-28 15:29:00,
2013-02-28 10:34:00,43.2,33.4,29.53,NW,308,6.0,9.0,68,0.00,,---,0.00,VWS V13.01,2013-02-28 15:34:00,
2013-02-28 10:39:00,43.6,33.4,29.53,NW,312,4.0,9.0,67,0.00,,---,0.00,VWS V13.01,2013-02-28 15:39:00,
2013-02-28 10:44:00,43.6,33.0,29.52,NW,306,0.0,6.0,66,0.00,,---,0.00,VWS V13.01,2013-02-28 15:44:00,
2013-02-28 10:49:00,44.3,33.7,29.52,West,279,0.0,6.0,66,0.00,,---,0.00,VWS V13.01,2013-02-28 15:49:00,
2013-02-28 10:54:00,43.9,33.3,29.52,WNW,294,6.0,10.0,66,0.00,,---,0.00,VWS V13.01,2013-02-28 15:54:00,
2013-02-28 10:59:00,43.9,33.3,29.51,NW,318,3.0,6.0,66,0.00,,---,0.00,VWS V13.01,2013-02-28 15:59:00,
2013-02-28 11:04:00,44.9,33.9,29.51,NW,326,5.0,11.0,65,0.00,,---,0.00,VWS V13.01,2013-02-28 16:04:00,
2013-02-28 11:09:00,44.8,33.0,29.51,WNW,294,4.0,11.0,63,0.00,,---,0.00,VWS V13.01,2013-02-28 16:09:00,
2013-02-28 11:14:00,45.2,33.8,29.51,WNW,298,2.0,6.0,64,0.00,,---,0.00,VWS V13.01,2013-02-28 16:14:00,
2013-02-28 11:19:00,46.1,33.8,29.51,NW,323,2.0,11.0,62,0.00,,---,0.00,VWS V13.01,2013-02-28 16:19:00,
2013-02-28 11:24:00,46.5,34.6,29.51,NW,315,5.0,11.0,63,0.00,,---,0.00,VWS V13.01,2013-02-28 16:24:00,
2013-02-28 11:29:00,46.5,33.4,29.51,WNW,286,10.0,11.0,60,0.00,,---,0.00,VWS V13.01,2013-02-28 16:29:00,
2013-02-28 11:34:00,46.2,32.7,29.51,WNW,287,5.0,11.0,59,0.00,,---,0.00,VWS V13.01,2013-02-28 16:34:00,
2013-02-28 11:39:00,46.2,33.1,29.51,NW,321,0.0,11.0,60,0.00,,---,0.00,VWS V13.01,2013-02-28 16:39:00,
2013-02-28 11:44:00,46.8,31.0,29.50,WNW,285,7.0,10.0,54,0.00,,---,0.00,VWS V13.01,2013-02-28 16:44:00,
2013-02-28 11:49:00,46.2,30.5,29.50,NW,319,10.0,12.0,54,0.00,,---,0.00,VWS V13.01,2013-02-28 16:49:00,
2013-02-28 11:54:00,46.1,31.7,29.50,NW,315,9.0,12.0,57,0.00,,---,0.00,VWS V13.01,2013-02-28 16:54:00,
2013-02-28 11:59:00,46.1,31.7,29.50,NW,321,0.0,9.0,57,0.00,,---,0.00,VWS V13.01,2013-02-28 16:59:00,
2013-02-28 12:04:00,46.0,31.6,29.50,NNW,348,9.0,10.0,57,0.00,,---,0.00,VWS V13.01,2013-02-28 17:04:00,
2013-02-28 12:09:00,45.7,31.4,29.50,NW,323,5.0,10.0,57,0.00,,---,0.00,VWS V13.01,2013-02-28 17:09:00,
2013-02-28 12:14:00,45.5,31.2,29.50,NNW,329,7.0,12.0,57,0.00,,---,0.00,VWS V13.01,2013-02-28 17:14:00,
2013-02-28 12:19:00,45.4,31.1,29.50,North,355,4.0,12.0,57,0.00,,---,0.00,VWS V13.01,2013-02-28 17:19:00,
2013-02-28 12:24:00,45.2,31.7,29.50,NW,326,5.0,12.0,59,0.00,,---,0.00,VWS V13.01,2013-02-28 17:24:00,
2013-02-28 12:29:00,44.9,30.6,29.49,North,360,11.0,11.0,57,0.00,,---,0.00,VWS V13.01,2013-02-28 17:29:00,
2013-02-28 12:34:00,44.9,31.0,29.49,WNW,301,4.0,11.0,58,0.00,,---,0.00,VWS V13.01,2013-02-28 17:34:00,
2013-02-28 12:39:00,44.9,31.0,29.49,NW,308,5.0,11.0,58,0.00,,---,0.00,VWS V13.01,2013-02-28 17:39:00,
2013-02-28 12:44:00,44.9,31.5,29.49,NNW,347,4.0,10.0,59,0.00,,---,0.00,VWS V13.01,2013-02-28 17:44:00,
2013-02-28 12:49:00,44.8,31.8,29.49,WNW,300,7.0,11.0,60,0.00,,---,0.00,VWS V13.01,2013-02-28 17:49:00,
2013-02-28 12:54:00,44.6,30.8,29.49,WNW,286,5.0,11.0,58,0.00,,---,0.00,VWS V13.01,2013-02-28 17:54:00,
2013-02-28 12:59:00,44.5,31.1,29.49,NNW,331,5.0,11.0,59,0.00,,---,0.00,VWS V13.01,2013-02-28 17:59:00,
2013-02-28 13:04:00,44.5,30.7,29.49,NW,315,9.0,11.0,58,0.00,,---,0.00,VWS V13.01,2013-02-28 18:04:00,
2013-02-28 13:09:00,44.3,30.5,29.49,NW,323,4.0,11.0,58,0.00,,---,0.00,VWS V13.01,2013-02-28 18:09:00,
2013-02-28 13:14:00,44.3,29.6,29.49,NW,304,5.0,10.0,56,0.00,,---,0.00,VWS V13.01,2013-02-28 18:14:00,
2013-02-28 13:19:00,44.3,29.6,29.49,NW,315,3.0,11.0,56,0.00,,---,0.00,VWS V13.01,2013-02-28 18:19:00,
2013-02-28 13:24:00,44.5,29.8,29.49,NNW,348,5.0,11.0,56,0.00,,---,0.00,VWS V13.01,2013-02-28 18:24:00,
2013-02-28 13:29:00,44.5,29.8,29.49,NW,317,9.0,11.0,56,0.00,,---,0.00,VWS V13.01,2013-02-28 18:29:00,
2013-02-28 13:34:00,44.2,29.1,29.49,NW,311,5.0,12.0,55,0.00,,---,0.00,VWS V13.01,2013-02-28 18:34:00,
2013-02-28 13:39:00,44.2,29.5,29.49,NW,306,3.0,12.0,56,0.00,,---,0.00,VWS V13.01,2013-02-28 18:39:00,
2013-02-28 13:44:00,44.3,30.0,29.49,WNW,292,2.0,7.0,57,0.00,,---,0.00,VWS V13.01,2013-02-28 18:44:00,
2013-02-28 13:49:00,44.2,30.0,29.49,NNW,338,6.0,9.0,57,0.00,,---,0.00,VWS V13.01,2013-02-28 18:49:00,
2013-02-28 13:54:00,44.2,30.4,29.49,NNW,333,12.0,12.0,58,0.00,,---,0.00,VWS V13.01,2013-02-28 18:54:00,
2013-02-28 13:59:00,44.1,29.4,29.49,WNW,302,4.0,11.0,56,0.00,,---,0.00,VWS V13.01,2013-02-28 18:59:00,
2013-02-28 14:04:00,44.1,29.0,29.49,WNW,293,4.0,15.0,55,0.00,,---,0.00,VWS V13.01,2013-02-28 19:04:00,
2013-02-28 14:09:00,44.1,29.9,29.49,NW,304,3.0,15.0,57,0.00,,---,0.00,VWS V13.01,2013-02-28 19:09:00,
2013-02-28 14:14:00,44.2,29.5,29.49,NW,323,3.0,7.0,56,0.00,,---,0.00,VWS V13.01,2013-02-28 19:14:00,
2013-02-28 14:19:00,44.2,28.6,29.49,WNW,298,6.0,12.0,54,0.00,,---,0.00,VWS V13.01,2013-02-28 19:19:00,
2013-02-28 14:24:00,44.2,27.2,29.49,NW,320,5.0,14.0,51,0.00,,---,0.00,VWS V13.01,2013-02-28 19:24:00,
2013-02-28 14:29:00,44.1,27.1,29.50,WNW,298,13.0,15.0,51,0.00,,---,0.00,VWS V13.01,2013-02-28 19:29:00,
2013-02-28 14:34:00,43.8,26.9,29.50,WNW,292,10.0,15.0,51,0.00,,---,0.00,VWS V13.01,2013-02-28 19:34:00,
2013-02-28 14:39:00,43.8,26.4,29.50,WNW,303,5.0,15.0,50,0.00,,---,0.00,VWS V13.01,2013-02-28 19:39:00,
2013-02-28 14:44:00,43.8,25.9,29.50,NW,305,7.0,11.0,49,0.00,,---,0.00,VWS V13.01,2013-02-28 19:44:00,
2013-02-28 14:49:00,43.8,25.4,29.50,NW,314,4.0,11.0,48,0.00,,---,0.00,VWS V13.01,2013-02-28 19:49:00,
2013-02-28 14:54:00,43.9,25.5,29.50,WNW,282,4.0,11.0,48,0.00,,---,0.00,VWS V13.01,2013-02-28 19:54:00,
2013-02-28 14:59:00,43.9,25.0,29.49,NW,309,3.0,9.0,47,0.00,,---,0.00,VWS V13.01,2013-02-28 19:59:00,
2013-02-28 15:04:00,44.1,25.2,29.49,NW,314,6.0,12.0,47,0.00,,---,0.00,VWS V13.01,2013-02-28 20:04:00,
2013-02-28 15:09:00,44.1,25.7,29.49,WNW,284,10.0,12.0,48,0.00,,---,0.00,VWS V13.01,2013-02-28 20:09:00,
2013-02-28 15:14:00,44.1,25.7,29.49,NNW,344,9.0,10.0,48,0.00,,---,0.00,VWS V13.01,2013-02-28 20:14:00,
2013-02-28 15:19:00,44.3,26.4,29.49,NW,324,7.0,12.0,49,0.00,,---,0.00,VWS V13.01,2013-02-28 20:19:00,
2013-02-28 15:24:00,44.8,27.8,29.49,NW,318,7.0,12.0,51,0.00,,---,0.00,VWS V13.01,2013-02-28 20:24:00,
2013-02-28 15:29:00,44.6,28.1,29.48,NNW,327,4.0,10.0,52,0.00,,---,0.00,VWS V13.01,2013-02-28 20:29:00,
2013-02-28 15:34:00,44.8,28.7,29.48,NW,306,7.0,10.0,53,0.00,,---,0.00,VWS V13.01,2013-02-28 20:34:00,
2013-02-28 15:39:00,44.6,28.5,29.48,WNW,294,10.0,12.0,53,0.00,,---,0.00,VWS V13.01,2013-02-28 20:39:00,
2013-02-28 15:44:00,44.5,28.9,29.48,NNW,327,6.0,11.0,54,0.00,,---,0.00,VWS V13.01,2013-02-28 20:44:00,
2013-02-28 15:49:00,44.5,28.9,29.48,NNW,332,8.0,11.0,54,0.00,,---,0.00,VWS V13.01,2013-02-28 20:49:00,
2013-02-28 15:54:00,44.2,28.6,29.48,NW,321,7.0,11.0,54,0.00,,---,0.00,VWS V13.01,2013-02-28 20:54:00,
2013-02-28 15:59:00,44.1,28.1,29.48,NW,320,6.0,11.0,53,0.00,,---,0.00,VWS V13.01,2013-02-28 20:59:00,
2013-02-28 16:04:00,44.1,28.5,29.48,NW,323,4.0,11.0,54,0.00,,---,0.00,VWS V13.01,2013-02-28 21:04:00,
2013-02-28 16:09:00,43.9,27.4,29.48,NW,310,4.0,11.0,52,0.00,,---,0.00,VWS V13.01,2013-02-28 21:09:00,
2013-02-28 16:14:00,43.8,27.8,29.48,WNW,302,4.0,10.0,53,0.00,,---,0.00,VWS V13.01,2013-02-28 21:14:00,
2013-02-28 16:19:00,43.8,27.3,29.48,NW,315,3.0,11.0,52,0.00,,---,0.00,VWS V13.01,2013-02-28 21:19:00,
2013-02-28 16:24:00,43.8,27.8,29.48,NW,308,3.0,11.0,53,0.00,,---,0.00,VWS V13.01,2013-02-28 21:24:00,
2013-02-28 16:29:00,43.8,27.3,29.48,WNW,294,10.0,10.0,52,0.00,,---,0.00,VWS V13.01,2013-02-28 21:29:00,
2013-02-28 16:34:00,43.8,27.3,29.48,NW,312,4.0,11.0,52,0.00,,---,0.00,VWS V13.01,2013-02-28 21:34:00,
2013-02-28 16:39:00,43.8,26.9,29.48,West,275,6.0,11.0,51,0.00,,---,0.00,VWS V13.01,2013-02-28 21:39:00,
2013-02-28 16:44:00,43.8,26.9,29.48,WNW,296,11.0,12.0,51,0.00,,---,0.00,VWS V13.01,2013-02-28 21:44:00,
2013-02-28 16:49:00,43.6,27.6,29.48,NW,325,0.0,12.0,53,0.00,,---,0.00,VWS V13.01,2013-02-28 21:49:00,
2013-02-28 16:54:00,43.5,26.6,29.48,NW,315,4.0,12.0,51,0.00,,---,0.00,VWS V13.01,2013-02-28 21:54:00,
2013-02-28 16:59:00,43.3,25.9,29.49,NNW,334,10.0,11.0,50,0.00,,---,0.00,VWS V13.01,2013-02-28 21:59:00,
2013-02-28 17:04:00,43.2,25.8,29.49,NW,306,3.0,11.0,50,0.00,,---,0.00,VWS V13.01,2013-02-28 22:04:00,
2013-02-28 17:09:00,43.1,25.7,29.49,NW,313,4.0,11.0,50,0.00,,---,0.00,VWS V13.01,2013-02-28 22:09:00,
2013-02-28 17:14:00,42.9,26.5,29.49,NW,319,4.0,6.0,52,0.00,,---,0.00,VWS V13.01,2013-02-28 22:14:00,
2013-02-28 17:19:00,42.8,25.9,29.49,NW,321,4.0,10.0,51,0.00,,---,0.00,VWS V13.01,2013-02-28 22:19:00,
2013-02-28 17:24:00,42.6,26.2,29.49,NW,311,6.0,10.0,52,0.00,,---,0.00,VWS V13.01,2013-02-28 22:24:00,
2013-02-28 17:29:00,42.5,26.1,29.50,NW,322,5.0,9.0,52,0.00,,---,0.00,VWS V13.01,2013-02-28 22:29:00,
2013-02-28 17:34:00,42.3,26.4,29.50,NW,305,5.0,10.0,53,0.00,,---,0.00,VWS V13.01,2013-02-28 22:34:00,
2013-02-28 17:39:00,42.2,26.8,29.50,NW,315,4.0,10.0,54,0.00,,---,0.00,VWS V13.01,2013-02-28 22:39:00,
2013-02-28 17:44:00,41.9,26.5,29.50,NW,315,4.0,4.0,54,0.00,,---,0.00,VWS V13.01,2013-02-28 22:44:00,
2013-02-28 17:49:00,41.6,26.6,29.50,NW,315,0.0,5.0,55,0.00,,---,0.00,VWS V13.01,2013-02-28 22:49:00,
2013-02-28 17:54:00,41.3,26.8,29.50,WNW,302,5.0,6.0,56,0.00,,---,0.00,VWS V13.01,2013-02-28 22:54:00,
2013-02-28 17:59:00,41.3,26.8,29.50,WNW,302,5.0,6.0,56,0.00,,---,0.00,VWS V13.01,2013-02-28 22:59:00,
2013-02-28 18:04:00,41.3,26.8,29.50,NW,313,4.0,6.0,56,0.00,,---,0.00,VWS V13.01,2013-02-28 23:04:00,
2013-02-28 18:09:00,41.2,27.1,29.50,NW,309,0.0,6.0,57,0.00,,---,0.00,VWS V13.01,2013-02-28 23:09:00,
2013-02-28 18:14:00,41.2,27.1,29.51,NW,317,2.0,5.0,57,0.00,,---,0.00,VWS V13.01,2013-02-28 23:14:00,
2013-02-28 18:19:00,41.2,27.1,29.51,NW,315,0.0,6.0,57,0.00,,---,0.00,VWS V13.01,2013-02-28 23:19:00,
2013-02-28 18:24:00,41.3,26.8,29.51,NW,309,0.0,6.0,56,0.00,,---,0.00,VWS V13.01,2013-02-28 23:24:00,
2013-02-28 18:29:00,41.3,26.8,29.51,NW,309,0.0,0.0,56,0.00,,---,0.00,VWS V13.01,2013-02-28 23:29:00,
2013-02-28 18:34:00,41.3,27.2,29.51,NW,305,0.0,4.0,57,0.00,,---,0.00,VWS V13.01,2013-02-28 23:34:00,
2013-02-28 18:39:00,41.2,27.1,29.51,WNW,303,1.0,4.0,57,0.00,,---,0.00,VWS V13.01,2013-02-28 23:39:00,
2013-02-28 18:44:00,41.2,27.1,29.52,WNW,294,4.0,10.0,57,0.00,,---,0.00,VWS V13.01,2013-02-28 23:44:00,
2013-02-28 18:49:00,41.2,27.6,29.52,NW,317,6.0,16.0,58,0.00,,---,0.00,VWS V13.01,2013-02-28 23:49:00,
2013-02-28 18:54:00,41.2,28.4,29.52,NW,304,6.0,16.0,60,0.00,,---,0.00,VWS V13.01,2013-02-28 23:54:00,
2013-02-28 18:59:00,41.1,29.1,29.52,WNW,298,6.0,11.0,62,0.00,,---,0.00,VWS V13.01,2013-02-28 23:59:00,
2013-02-28 19:04:00,40.8,29.2,29.52,NW,310,10.0,11.0,63,0.00,,---,0.00,VWS V13.01,2013-03-01 00:04:00,
2013-02-28 19:09:00,40.5,28.9,29.52,NW,308,8.0,12.0,63,0.00,,---,0.00,VWS V13.01,2013-03-01 00:09:00,
2013-02-28 19:14:00,40.2,28.6,29.53,WNW,293,5.0,11.0,63,0.00,,---,0.00,VWS V13.01,2013-03-01 00:14:00,
2013-02-28 19:19:00,40.1,28.9,29.53,NW,309,1.0,11.0,64,0.00,,---,0.00,VWS V13.01,2013-03-01 00:19:00,
2013-02-28 19:24:00,40.1,28.5,29.53,WNW,285,6.0,13.0,63,0.00,,---,0.00,VWS V13.01,2013-03-01 00:24:00,
2013-02-28 19:29:00,39.9,28.7,29.53,NW,305,5.0,10.0,64,0.00,,---,0.00,VWS V13.01,2013-03-01 00:29:00,
2013-02-28 19:34:00,39.8,28.6,29.53,NW,320,10.0,12.0,64,0.00,,---,0.00,VWS V13.01,2013-03-01 00:34:00,
2013-02-28 19:39:00,39.8,28.6,29.53,NW,319,5.0,12.0,64,0.00,,---,0.00,VWS V13.01,2013-03-01 00:39:00,
2013-02-28 19:44:00,39.6,28.8,29.53,NNW,332,5.0,11.0,65,0.00,,---,0.00,VWS V13.01,2013-03-01 00:44:00,
2013-02-28 19:49:00,39.5,28.7,29.53,NW,321,7.0,12.0,65,0.00,,---,0.00,VWS V13.01,2013-03-01 00:49:00,
2013-02-28 19:54:00,39.3,28.9,29.53,NNW,329,9.0,12.0,66,0.00,,---,0.00,VWS V13.01,2013-03-01 00:54:00,
2013-02-28 19:59:00,39.2,29.2,29.53,WNW,293,7.0,12.0,67,0.00,,---,0.00,VWS V13.01,2013-03-01 00:59:00,
2013-02-28 20:04:00,39.1,29.5,29.53,NNW,336,5.0,12.0,68,0.00,,---,0.00,VWS V13.01,2013-03-01 01:04:00,
2013-02-28 20:09:00,38.8,29.5,29.53,NW,306,4.0,12.0,69,0.00,,---,0.00,VWS V13.01,2013-03-01 01:09:00,
2013-02-28 20:14:00,38.8,29.9,29.54,NW,317,8.0,9.0,70,0.00,,---,0.00,VWS V13.01,2013-03-01 01:14:00,
2013-02-28 20:19:00,38.6,29.7,29.54,WNW,300,6.0,9.0,70,0.00,,---,0.00,VWS V13.01,2013-03-01 01:19:00,
2013-02-28 20:24:00,38.6,30.0,29.54,NW,317,9.0,10.0,71,0.00,,---,0.00,VWS V13.01,2013-03-01 01:24:00,
2013-02-28 20:29:00,38.5,30.3,29.55,WNW,302,4.0,9.0,72,0.00,,---,0.00,VWS V13.01,2013-03-01 01:29:00,
2013-02-28 20:34:00,38.3,30.1,29.55,NW,306,2.0,9.0,72,0.00,,---,0.00,VWS V13.01,2013-03-01 01:34:00,
2013-02-28 20:39:00,38.3,30.4,29.55,WNW,288,5.0,11.0,73,0.00,,---,0.00,VWS V13.01,2013-03-01 01:39:00,
2013-02-28 20:44:00,38.2,30.3,29.55,WNW,291,4.0,11.0,73,0.00,,---,0.00,VWS V13.01,2013-03-01 01:44:00,
2013-02-28 20:49:00,38.2,30.7,29.55,NW,317,6.0,11.0,74,0.00,,---,0.00,VWS V13.01,2013-03-01 01:49:00,
2013-02-28 20:54:00,38.0,30.5,29.55,WNW,299,5.0,11.0,74,0.00,,---,0.00,VWS V13.01,2013-03-01 01:54:00,
2013-02-28 20:59:00,38.0,30.8,29.55,WNW,288,6.0,12.0,75,0.00,,---,0.00,VWS V13.01,2013-03-01 01:59:00,
2013-02-28 21:04:00,38.0,30.8,29.55,West,271,0.0,12.0,75,0.00,,---,0.00,VWS V13.01,2013-03-01 02:04:00,
2013-02-28 21:09:00,38.0,30.8,29.55,WSW,249,4.0,12.0,75,0.00,,---,0.00,VWS V13.01,2013-03-01 02:09:00,
2013-02-28 21:14:00,37.9,30.7,29.55,West,281,2.0,5.0,75,0.00,,---,0.00,VWS V13.01,2013-03-01 02:14:00,
2013-02-28 21:19:00,37.8,30.9,29.55,West,279,0.0,7.0,76,0.00,,---,0.00,VWS V13.01,2013-03-01 02:19:00,
2013-02-28 21:24:00,37.6,30.7,29.55,West,279,0.0,7.0,76,0.00,,---,0.00,VWS V13.01,2013-03-01 02:24:00,
2013-02-28 21:29:00,37.5,31.0,29.56,West,280,2.0,5.0,77,0.00,,---,0.00,VWS V13.01,2013-03-01 02:29:00,
2013-02-28 21:34:00,37.3,30.8,29.56,WNW,283,0.0,6.0,77,0.00,,---,0.00,VWS V13.01,2013-03-01 02:34:00,
2013-02-28 21:39:00,37.2,30.7,29.56,WNW,283,0.0,6.0,77,0.00,,---,0.00,VWS V13.01,2013-03-01 02:39:00,
2013-02-28 21:44:00,37.0,30.5,29.56,WNW,283,0.0,0.0,77,0.00,,---,0.00,VWS V13.01,2013-03-01 02:44:00,
2013-02-28 21:49:00,37.0,30.8,29.56,WNW,285,1.0,4.0,78,0.00,,---,0.00,VWS V13.01,2013-03-01 02:49:00,
2013-02-28 21:54:00,36.9,30.7,29.56,West,276,0.0,4.0,78,0.00,,---,0.00,VWS V13.01,2013-03-01 02:54:00,
2013-02-28 21:59:00,36.6,30.4,29.56,West,276,2.0,3.0,78,0.00,,---,0.00,VWS V13.01,2013-03-01 02:59:00,
2013-02-28 22:04:00,36.6,30.7,29.56,West,276,0.0,3.0,79,0.00,,---,0.00,VWS V13.01,2013-03-01 03:04:00,
2013-02-28 22:09:00,36.3,30.4,29.56,West,276,0.0,3.0,79,0.00,,---,0.00,VWS V13.01,2013-03-01 03:09:00,
2013-02-28 22:14:00,36.2,30.3,29.56,West,276,0.0,0.0,79,0.00,,---,0.00,VWS V13.01,2013-03-01 03:14:00,
2013-02-28 22:19:00,36.2,30.3,29.56,West,276,0.0,0.0,79,0.00,,---,0.00,VWS V13.01,2013-03-01 03:19:00,
2013-02-28 22:24:00,35.9,30.3,29.56,West,276,0.0,0.0,80,0.00,,---,0.00,VWS V13.01,2013-03-01 03:24:00,
2013-02-28 22:29:00,35.8,30.2,29.56,West,276,0.0,0.0,80,0.00,,---,0.00,VWS V13.01,2013-03-01 03:29:00,
2013-02-28 22:34:00,35.8,30.2,29.56,West,276,0.0,0.0,80,0.00,,---,0.00,VWS V13.01,2013-03-01 03:34:00,
2013-02-28 22:39:00,35.8,30.2,29.56,West,281,2.0,4.0,80,0.00,,---,0.00,VWS V13.01,2013-03-01 03:39:00,
2013-02-28 22:44:00,35.9,30.6,29.56,WNW,291,1.0,6.0,81,0.00,,---,0.00,VWS V13.01,2013-03-01 03:44:00,
2013-02-28 22:49:00,35.9,30.3,29.56,WNW,291,0.0,6.0,80,0.00,,---,0.00,VWS V13.01,2013-03-01 03:49:00,
2013-02-28 22:54:00,35.9,30.3,29.56,West,277,0.0,6.0,80,0.00,,---,0.00,VWS V13.01,2013-03-01 03:54:00,
2013-02-28 22:59:00,35.9,30.3,29.56,WNW,301,3.0,7.0,80,0.00,,---,0.00,VWS V13.01,2013-03-01 03:59:00,
2013-02-28 23:04:00,35.9,30.3,29.56,WNW,300,0.0,7.0,80,0.00,,---,0.00,VWS V13.01,2013-03-01 04:04:00,
2013-02-28 23:09:00,35.8,30.5,29.56,WNW,300,0.0,7.0,81,0.00,,---,0.00,VWS V13.01,2013-03-01 04:09:00,
2013-02-28 23:14:00,35.6,30.4,29.55,WNW,300,0.0,0.0,81,0.00,,---,0.00,VWS V13.01,2013-03-01 04:14:00,
2013-02-28 23:19:00,35.5,30.3,29.55,WNW,300,0.0,4.0,81,0.00,,---,0.00,VWS V13.01,2013-03-01 04:19:00,
2013-02-28 23:24:00,35.5,30.3,29.55,WNW,300,0.0,4.0,81,0.00,,---,0.00,VWS V13.01,2013-03-01 04:24:00,
2013-02-28 23:29:00,35.2,30.0,29.55,WNW,300,0.0,0.0,81,0.00,,---,0.00,VWS V13.01,2013-03-01 04:29:00,
2013-02-28 23:34:00,35.0,30.1,29.55,WNW,300,0.0,2.0,82,0.00,,---,0.00,VWS V13.01,2013-03-01 04:34:00,
2013-02-28 23:39:00,34.9,30.3,29.55,WNW,300,0.0,4.0,83,0.00,,---,0.00,VWS V13.01,2013-03-01 04:39:00,
2013-02-28 23:44:00,35.0,30.4,29.55,WNW,296,0.0,2.0,83,0.00,,---,0.00,VWS V13.01,2013-03-01 04:44:00,
2013-02-28 23:49:00,35.0,30.1,29.55,WNW,294,0.0,3.0,82,0.00,,---,0.00,VWS V13.01,2013-03-01 04:49:00,
2013-02-28 23:54:00,35.0,30.1,29.55,NW,322,1.0,5.0,82,0.00,,---,0.00,VWS V13.01,2013-03-01 04:54:00,
2013-02-28 23:59:00,35.0,30.4,29.55,NW,304,0.0,1.0,83,0.00,,---,0.00,VWS V13.01,2013-03-01 04:59:00,